This is the latest recevied weather packets stored in our database for station/object KB4MOX. If no packets are shown the sender has not sent any weather packets the latest 10 day(s).
| Time | Temp. | Humidity | Pressure | Rain* | Wind** | Luminosity | Snow |
|---|---|---|---|---|---|---|---|
| 1787517655 | 35.56° C | 42% | 1013.4 hPa | 0 mm | - | 493 W/m² | - |
| 1787517352 | 35.56° C | 40% | 1013.3 hPa | 0 mm | - | 522 W/m² | - |
| 1787517048 | 36.11° C | 40% | 1013.4 hPa | 0 mm | - | 531 W/m² | - |
| 1787516748 | 35.56° C | 41% | 1013.5 hPa | 0 mm | - | 538 W/m² | - |
| 1787516443 | 36.11° C | 40% | 1013.6 hPa | 0 mm | - | 564 W/m² | - |
| 1787516143 | 35.56° C | 41% | 1013.5 hPa | 0 mm | - | 588 W/m² | - |
| 1787515838 | 35.56° C | 40% | 1013.5 hPa | 0 mm | - | 586 W/m² | - |
| 1787515535 | 35.56° C | 41% | 1013.6 hPa | 0 mm | - | 601 W/m² | - |
| 1787515234 | 35.56° C | 41% | 1013.6 hPa | 0 mm | - | 631 W/m² | - |
| 1787514929 | 36.11° C | 40% | 1013.6 hPa | 0 mm | - | 621 W/m² | - |
| 1787514626 | 35.56° C | 41% | 1013.9 hPa | 0 mm | - | 629 W/m² | - |
| 1787514321 | 35.56° C | 40% | 1013.9 hPa | 0 mm | - | 656 W/m² | - |
| 1787514020 | 35.56° C | 40% | 1013.9 hPa | 0 mm | - | 651 W/m² | - |
| 1787513716 | 35.56° C | 40% | 1013.9 hPa | 0 mm | - | 669 W/m² | - |
| 1787513412 | 35° C | 41% | 1014.1 hPa | 0 mm | - | 677 W/m² | - |
| 1787513108 | 35.56° C | 40% | 1013.9 hPa | 0 mm | - | 688 W/m² | - |
| 1787512804 | 35.56° C | 40% | 1013.9 hPa | 0 mm | - | 708 W/m² | - |
| 1787512500 | 35° C | 41% | 1014 hPa | 0 mm | - | 698 W/m² | - |
| 1787512195 | 35° C | 41% | 1014.2 hPa | 0 mm | - | 703 W/m² | - |
| 1787511891 | 35° C | 43% | 1014.1 hPa | 0 mm | - | 717 W/m² | - |
| 1787511591 | 35.56° C | 39% | 1014.3 hPa | 0 mm | - | 717 W/m² | - |
| 1787511289 | 35° C | 41% | 1014.3 hPa | 0 mm | - | 723 W/m² | - |
| 1787510989 | 35° C | 40% | 1014.3 hPa | 0 mm | - | 736 W/m² | - |
| 1787510683 | 35° C | 41% | 1014.4 hPa | 0 mm | - | 737 W/m² | - |
| 1787510380 | 35° C | 40% | 1014.4 hPa | 0 mm | - | 742 W/m² | - |
* Rain latest hour (hover to see other rain measurements)
** Current wind speed in m/s (hover to see current wind gust speed)